Location: *
(50.3440°N, 18.6237°E)
Time: 13:26:08
(UTC+00:00)

MOS 1 Rocket - Pass Details

Date: 30 November 2020
Orbit: 613 x 831 km, 97.4° (Epoch: 26 January)

Event Time Altitude Azimuth Distance (km) Brightness Sun altitude
Exits shadow 18:03:08 63° 300° (WNW) 926 4.0 -30.6°
Maximum altitude 18:03:20 64° 288° (WNW) 922 4.0 -30.7°
Drops below altitude 10° 18:08:39 10° 208° (SSW) 2,411 6.3 -31.5°
Sets 18:10:59 0° 206° (SSW) 3,322 7.1 -31.9°
